Theta_e
328 330 332 331 327 329 332 340 343 345 353 354 350 350 351 346 351 348 339 340 339 339 338 338 338 341 343 343 344 344 344 343 345 350 350 350 351 352 352 351 351 351 353 353
321 321 322 326 327 329 333 340 339 345 353 353 352 350 347 347 349 351 346 340 340 339 339 339 339 342 343 343 344 345 345 345 346 349 347 349 350 352 352 351 348 351 353 354
321 322 324 324 325 326 331 333 336 344 354 349 350 349 351 353 352 353 350 341 342 341 341 338 340 341 342 342 343 345 345 345 346 348 347 348 351 354 352 350 347 342 348 354
320 321 322 322 323 324 323 327 334 333 330 332 344 344 350 353 352 353 353 346 345 341 341 339 340 341 342 343 343 346 347 345 346 347 350 349 351 354 351 351 348 340 342 354
320 321 321 321 321 323 322 324 331 332 329 336 339 341 341 347 348 354 352 346 346 346 342 340 340 343 343 344 346 345 347 346 348 350 347 350 352 354 352 339 347 347 349 352
319 320 321 320 322 325 324 324 324 333 335 336 339 341 341 347 347 353 350 347 346 347 344 342 341 343 344 345 346 348 349 349 350 349 348 350 351 353 352 353 353 352 351 351
319 320 319 321 321 320 319 318 322 332 341 343 336 339 338 338 343 350 351 348 345 344 346 343 343 343 345 347 348 349 350 350 349 348 348 352 352 355 355 355 353 353 353 355
320 319 322 323 321 320 321 318 320 331 343 340 338 342 338 336 335 345 349 348 345 344 345 344 342 344 347 348 349 350 351 351 349 348 347 349 353 357 356 354 356 356 356 356
316 318 320 322 321 320 320 321 318 323 332 335 336 339 341 342 345 349 349 349 347 345 345 345 343 344 348 349 350 350 352 352 350 350 350 349 348 352 357 360 357 358 358 349
319 318 321 325 323 322 320 319 319 315 324 340 343 343 345 347 347 344 348 350 348 346 345 345 344 343 347 350 351 352 352 352 352 353 352 351 351 349 349 354 361 358 358 349
321 319 321 322 323 322 320 320 316 314 320 324 338 343 343 346 347 345 345 348 349 347 346 345 344 344 345 349 351 353 353 354 354 355 354 354 353 354 354 351 355 358 359 358
329 316 329 328 324 323 323 322 316 316 318 319 327 333 342 341 341 344 343 343 347 347 346 344 344 345 344 347 349 352 355 355 354 354 355 354 354 357 358 357 352 354 359 358
329 326 329 329 326 326 327 327 320 314 314 317 331 339 335 338 349 349 347 344 342 343 346 345 344 343 344 344 346 347 355 355 354 356 357 356 356 356 357 358 356 357 363 358
328 322 326 328 328 325 332 333 331 318 318 318 323 341 343 344 344 345 347 347 347 344 344 344 344 344 344 343 345 345 353 355 356 357 358 358 357 356 357 357 359 359 364 358
322 326 326 326 330 332 332 334 338 344 340 334 332 340 341 341 346 348 351 351 350 348 349 346 346 344 346 343 343 345 350 353 354 357 358 358 356 357 360 361 362 363 362 359
325 331 332 330 331 332 334 336 338 346 348 345 336 342 340 345 349 351 351 354 355 355 354 353 352 346 347 348 347 345 346 351 354 356 356 358 359 359 361 363 363 364 363 359
326 325 328 330 332 331 335 335 339 347 348 345 342 341 344 350 351 350 349 350 352 353 354 357 355 352 351 354 353 352 348 348 351 355 356 357 359 361 362 363 364 364 363 357
325 328 326 330 329 335 332 334 340 344 345 347 346 345 345 346 344 338 336 341 350 353 357 359 359 360 361 361 359 361 360 355 352 355 357 358 361 362 362 364 364 363 362 354
324 328 331 333 335 334 336 336 338 337 346 342 341 342 343 341 342 336 334 337 342 350 355 360 363 365 366 366 362 361 361 361 359 357 359 360 361 362 363 363 362 361 358 348
329 326 329 333 338 340 335 338 339 338 350 340 339 338 341 340 344 339 337 341 340 342 356 362 365 367 367 368 365 363 365 366 366 363 363 363 363 363 362 360 360 357 350 343
334 332 334 334 334 338 338 336 335 334 339 337 341 338 337 340 339 338 341 338 339 340 341 363 365 367 366 366 367 368 368 367 367 367 367 366 363 362 359 356 355 349 338 336
335 335 334 334 337 337 339 336 339 337 336 336 341 339 340 338 338 340 337 334 334 335 338 343 362 365 366 365 365 363 361 363 364 364 363 361 359 355 352 350 347 344 340 340
335 333 338 335 334 335 332 334 334 335 333 335 336 337 335 336 338 336 334 339 336 332 334 339 358 362 364 362 362 362 361 361 360 358 353 353 351 351 348 347 344 343 344 342
333 332 332 334 335 335 333 335 335 335 336 333 335 335 336 336 337 340 336 338 340 339 338 345 359 358 358 359 359 358 359 359 358 354 350 351 350 349 348 347 345 345 343 341
333 330 331 331 331 334 335 335 335 333 335 335 334 336 335 336 336 335 339 338 336 335 348 360 360 357 356 355 355 355 355 356 355 352 349 349 349 347 345 345 344 344 343 342
330 329 331 331 333 334 333 333 336 335 334 331 333 333 333 334 332 329 329 331 335 346 354 357 360 357 355 354 353 353 355 355 354 351 350 350 347 346 345 344 342 343 341 340
Wind_Speed
4 1 9 11 6 9 5 4 7 1 10 7 13 3 7 13 9 10 12 16 15 14 14 25 28 36 39 38 38 34 31 28 25 21 16 14 11 5 10 13 5 8 9 8
6 7 12 7 7 11 7 3 9 6 15 5 4 5 4 11 13 15 15 15 17 9 14 16 24 32 36 39 37 35 33 31 28 25 20 17 10 5 12 9 11 10 8 10
6 12 7 8 13 7 4 4 4 6 15 1 7 7 3 5 3 10 9 15 16 14 18 14 20 31 33 35 37 37 36 34 30 26 19 17 9 8 13 16 10 7 11 7
7 12 7 9 7 4 4 2 1 2 4 3 4 4 4 5 13 13 13 13 12 9 19 15 20 26 32 36 40 36 35 35 31 28 20 21 16 13 14 15 12 8 8 9
10 6 7 6 7 4 7 3 1 2 2 2 2 3 6 5 9 14 17 16 15 10 18 17 21 33 36 35 36 39 35 36 33 31 24 23 20 18 15 13 8 9 13 12
10 5 4 6 6 3 2 6 8 6 3 3 5 4 5 6 16 11 16 18 20 18 18 16 27 32 32 34 34 38 38 39 36 33 28 26 24 19 20 16 17 15 15 14
8 10 8 4 6 7 8 7 4 4 5 5 4 2 8 8 10 15 21 21 23 21 12 15 17 24 29 31 32 35 40 40 39 36 33 30 26 24 23 18 16 17 17 15
2 9 2 2 9 10 4 8 5 5 3 6 3 4 5 8 9 16 19 22 22 22 14 19 19 28 32 34 34 35 38 38 41 39 37 36 32 25 26 22 20 19 19 15
5 7 5 5 8 11 4 2 8 4 1 1 4 4 4 14 17 5 11 17 21 22 17 19 17 28 31 34 36 38 36 36 41 43 39 37 37 34 29 23 22 23 19 15
4 5 3 6 6 4 8 4 3 4 1 3 5 3 2 7 7 10 6 15 19 22 20 17 18 23 34 36 39 38 37 40 45 42 40 39 38 37 35 29 22 22 23 17
3 3 11 3 4 2 6 3 6 5 5 5 2 5 6 13 5 14 11 14 19 20 20 16 17 24 30 35 34 37 34 34 34 39 41 38 36 35 33 33 30 23 22 21
5 6 2 5 4 2 3 4 5 5 5 2 4 5 14 13 13 7 13 9 17 20 19 15 14 23 23 28 31 33 35 36 42 44 41 41 38 35 34 32 31 28 20 16
3 3 4 10 9 9 7 7 4 2 4 6 5 5 4 3 16 23 7 5 7 9 14 15 12 11 20 25 30 31 36 40 42 40 39 39 39 37 36 34 31 26 20 20
6 3 6 5 6 5 8 14 12 2 4 1 5 5 6 6 7 8 8 7 5 9 8 10 12 13 20 24 30 32 35 40 39 39 37 37 39 38 36 35 31 28 23 27
5 1 2 1 3 4 6 11 11 11 5 5 5 9 11 11 9 8 7 8 9 8 7 7 8 7 12 19 23 29 35 37 39 36 34 39 40 39 35 31 27 25 30 32
6 3 2 5 6 6 6 14 7 10 13 3 4 2 3 4 9 10 9 10 9 8 7 6 5 7 12 23 29 30 33 38 35 34 38 34 36 38 33 28 26 29 33 34
1 2 3 5 3 4 5 5 8 9 16 6 7 8 16 5 9 9 8 10 8 8 8 8 6 6 6 19 30 31 36 38 34 35 32 36 36 35 32 28 30 34 35 33
4 3 2 3 5 2 4 2 12 18 15 14 11 15 15 4 8 17 15 12 8 8 8 7 7 11 12 8 14 9 16 30 33 34 35 34 32 31 31 29 31 33 38 38
3 5 3 3 1 3 3 4 4 2 5 10 8 13 15 15 8 7 17 17 12 5 6 7 12 13 15 11 1 13 15 23 28 30 29 29 30 30 29 30 31 34 38 38
7 7 4 2 2 3 4 7 6 3 1 6 6 9 10 12 7 5 20 16 16 27 8 10 13 18 19 13 5 3 10 18 18 20 21 23 27 30 31 31 31 34 35 35
4 4 4 2 3 4 4 8 8 5 3 3 2 3 8 3 4 7 13 13 11 17 28 10 15 16 14 11 11 14 13 11 11 13 15 17 20 24 26 27 27 26 27 23
2 2 1 1 1 5 3 4 4 4 4 3 5 3 3 4 8 6 14 12 15 16 24 29 9 14 12 10 9 11 11 6 8 11 12 13 14 17 19 22 24 23 16 14
1 4 3 5 5 3 4 4 3 5 4 4 5 4 3 2 4 12 1 6 7 18 35 37 14 10 10 8 7 12 8 5 7 8 11 13 13 15 17 20 20 17 17 17
1 2 2 3 3 4 7 2 5 7 10 5 5 4 1 7 12 10 12 12 11 21 27 34 12 10 7 6 9 8 6 7 9 13 17 17 16 17 15 14 14 18 20 20
4 4 3 5 7 5 4 3 9 9 8 7 12 9 8 8 13 11 14 11 15 20 19 11 16 14 11 8 9 8 5 7 12 17 17 16 15 15 15 14 14 14 15 17
5 7 4 5 5 3 5 5 9 9 6 5 1 5 6 12 13 14 5 3 10 6 9 10 11 12 12 11 10 8 6 9 13 17 16 15 15 17 18 17 14 13 14 13
Wind_Direction
294 36 239 258 236 243 248 207 208 217 176 163 223 164 185 158 159 176 198 191 196 195 191 187 167 168 172 174 177 181 179 180 175 174 179 195 218 238 212 203 215 229 230 240
1 266 260 244 256 266 261 153 277 238 163 158 228 258 149 166 191 185 189 200 196 181 171 177 160 165 171 175 180 183 183 181 179 177 183 189 201 210 206 211 234 236 227 246
186 247 303 296 301 291 221 203 250 153 175 295 141 311 272 204 172 185 198 199 198 180 175 169 162 169 171 174 179 185 186 183 184 183 187 194 188 157 189 214 226 256 216 207
248 270 255 287 257 191 350 171 270 41 120 184 181 260 247 226 213 200 195 198 196 166 178 174 167 172 175 181 181 183 183 184 185 183 189 192 195 197 222 214 215 211 221 198
247 290 317 307 261 352 265 342 40 80 156 105 307 89 269 178 236 212 198 196 194 176 184 184 174 178 184 178 180 187 184 185 187 187 194 200 206 211 218 207 256 232 212 211
241 260 218 234 307 255 266 41 28 35 62 54 227 137 281 196 219 188 191 189 188 199 189 188 178 179 182 182 180 184 187 190 192 193 195 201 211 208 204 231 249 235 216 210
321 285 287 191 311 336 68 57 359 343 3 219 220 62 234 258 211 181 190 188 190 196 179 183 177 178 181 182 182 185 190 194 199 199 198 201 208 213 209 212 222 229 222 215
231 321 180 201 200 191 185 137 152 230 229 267 61 232 263 236 245 193 181 185 184 190 183 187 183 181 182 184 185 187 193 199 203 204 204 206 210 212 219 220 218 226 221 209
179 264 276 214 245 137 233 183 192 159 153 82 252 323 23 27 15 139 161 171 183 186 183 190 187 183 182 187 190 192 195 200 205 208 207 208 211 214 217 215 218 220 220 205
225 304 210 297 42 3 150 166 49 10 43 5 334 328 245 21 14 354 151 173 183 184 191 189 189 179 188 188 193 196 199 200 206 209 212 212 212 215 219 218 215 215 214 211
95 79 294 24 33 280 336 331 63 119 136 160 213 261 211 123 171 266 263 169 178 187 193 192 191 187 184 188 191 196 199 203 207 209 213 217 219 218 221 222 218 220 221 221
229 152 354 216 261 290 250 251 148 131 249 200 162 270 188 177 199 251 269 185 178 185 189 189 188 189 182 185 189 192 199 201 210 215 213 217 221 222 220 222 222 219 219 212
343 20 24 347 358 351 25 340 270 102 92 181 141 260 197 157 149 260 203 173 162 159 186 191 189 183 190 186 189 191 196 204 210 211 214 217 221 223 225 222 219 211 207 192
28 99 140 181 224 241 8 3 348 46 71 198 213 127 122 203 137 104 105 112 118 135 154 181 194 198 195 193 190 194 199 205 207 208 209 213 219 222 223 223 217 207 201 185
60 87 62 171 242 69 74 17 21 42 279 135 248 158 194 166 142 120 102 80 71 67 70 165 182 189 206 201 202 202 206 207 208 205 207 214 219 222 220 215 209 201 202 191
352 322 105 336 348 54 67 33 25 21 337 331 105 66 310 172 110 98 92 81 76 71 75 48 24 203 194 202 202 207 210 213 206 204 211 212 216 220 217 206 198 200 196 190
143 53 29 302 326 39 35 355 52 67 14 352 14 342 335 340 92 70 80 88 84 59 40 35 29 24 223 204 202 204 213 215 207 207 210 213 215 214 212 203 195 195 192 189
265 97 89 215 16 54 215 331 99 92 38 27 33 5 352 334 83 48 30 1 58 69 56 38 21 37 40 33 229 231 218 212 207 207 210 211 209 207 209 194 190 189 192 190
145 113 63 112 186 275 64 8 18 41 26 15 38 26 12 344 40 11 21 355 331 83 80 67 49 33 32 21 286 213 224 212 208 205 208 209 210 203 198 192 186 188 191 186
42 69 103 76 111 194 230 301 307 237 48 13 25 57 26 17 54 289 336 340 337 349 39 57 55 40 33 37 66 98 167 174 178 191 199 203 205 201 194 189 187 186 179 174
1 5 133 169 193 279 281 300 289 126 242 306 205 237 100 113 202 255 294 337 356 357 341 42 42 41 31 34 87 100 124 126 150 163 183 195 198 194 191 182 185 175 154 161
129 77 341 55 177 261 328 347 94 193 302 278 196 201 305 229 175 358 354 344 342 340 331 336 58 44 38 43 88 78 80 112 156 166 164 168 180 180 176 171 169 169 170 166
25 167 194 170 228 263 289 227 193 159 202 249 141 177 262 155 304 121 124 33 334 335 306 305 275 81 57 49 71 99 95 99 127 148 139 146 156 155 161 161 164 163 176 181
89 137 182 32 274 196 249 200 208 211 227 234 209 163 141 193 180 208 190 197 203 198 252 264 138 120 100 92 95 95 127 131 141 138 129 134 142 138 150 163 172 182 178 173
198 122 203 260 280 277 291 236 228 228 236 214 183 167 199 248 284 224 222 217 218 241 210 188 159 142 139 120 102 108 140 150 140 141 145 150 152 163 164 172 181 194 199 201
178 179 169 225 229 180 261 266 259 254 266 277 90 302 221 200 247 262 248 230 217 207 160 178 141 144 151 141 129 130 165 167 154 158 167 174 177 178 177 174 176 193 197 198